Time,TemperatureF,DewpointF,PressureIn,WindDirection,WindDirectionDegrees,WindSpeedMPH,WindSpeedGustMPH,Humidity,HourlyPrecipIn,Conditions,Clouds,dailyrainin,SoftwareType,DateUTC
2013-02-24 00:01:00,41.0,41.0,30.49,ESE,123,5.0,8.0,100,0.00,,,0.10,,2013-02-24 08:01:00,
2013-02-24 00:11:00,41.0,41.0,30.49,ESE,123,5.0,8.0,100,0.00,,,0.10,,2013-02-24 08:11:00,
2013-02-24 00:22:00,41.0,41.0,30.50,ESE,111,5.0,9.0,100,0.00,,,0.10,,2013-02-24 08:22:00,
2013-02-24 00:31:00,40.0,37.0,30.50,ESE,118,7.0,10.0,90,0.00,,,0.10,,2013-02-24 08:31:00,
2013-02-24 00:41:00,40.0,37.0,30.50,ESE,118,7.0,10.0,90,0.00,,,0.10,,2013-02-24 08:41:00,
2013-02-24 00:53:00,40.0,36.0,30.50,ESE,121,5.0,7.0,87,0.00,,,0.10,,2013-02-24 08:53:00,
2013-02-24 01:01:00,40.0,37.0,30.50,ESE,117,5.0,9.0,89,0.00,,,0.10,,2013-02-24 09:01:00,
2013-02-24 01:11:00,40.0,37.0,30.50,ESE,117,5.0,9.0,89,0.00,,,0.10,,2013-02-24 09:11:00,
2013-02-24 01:21:00,40.0,36.0,30.50,ESE,119,4.0,6.0,87,0.00,,,0.10,,2013-02-24 09:21:00,
2013-02-24 01:31:00,40.0,38.0,30.50,ESE,122,5.0,6.0,93,0.00,,,0.08,,2013-02-24 09:31:00,
2013-02-24 01:41:00,40.0,38.0,30.50,ESE,122,5.0,6.0,93,0.00,,,0.08,,2013-02-24 09:41:00,
2013-02-24 01:51:00,41.0,40.0,30.50,SE,126,4.0,6.0,97,0.00,,,0.08,,2013-02-24 09:51:00,
2013-02-24 02:01:00,41.0,40.0,30.50,SE,141,4.0,5.0,97,0.00,,,0.08,,2013-02-24 10:01:00,
2013-02-24 02:11:00,41.0,40.0,30.50,SE,141,4.0,5.0,97,0.00,,,0.08,,2013-02-24 10:11:00,
2013-02-24 02:21:00,41.0,40.0,30.49,ESE,112,4.0,5.0,98,0.00,,,0.08,,2013-02-24 10:21:00,
2013-02-24 02:31:00,41.0,41.0,30.49,ESE,119,3.0,5.0,100,0.00,,,0.07,,2013-02-24 10:31:00,
2013-02-24 02:41:00,41.0,41.0,30.49,ESE,119,3.0,5.0,100,0.00,,,0.07,,2013-02-24 10:41:00,
2013-02-24 02:51:00,41.0,41.0,30.49,SE,135,4.0,5.0,100,0.00,,,0.07,,2013-02-24 10:51:00,
2013-02-24 03:01:00,41.0,41.0,30.49,SE,129,3.0,5.0,99,0.00,,,0.07,,2013-02-24 11:01:00,
2013-02-24 03:11:00,41.0,41.0,30.49,SE,129,3.0,5.0,99,0.00,,,0.07,,2013-02-24 11:11:00,
2013-02-24 03:21:00,41.0,41.0,30.48,SE,128,4.0,5.0,100,0.00,,,0.07,,2013-02-24 11:21:00,
2013-02-24 03:32:00,41.0,40.0,30.47,ESE,117,3.0,5.0,97,0.00,,,0.07,,2013-02-24 11:32:00,
2013-02-24 03:41:00,41.0,40.0,30.47,ESE,117,3.0,5.0,97,0.00,,,0.07,,2013-02-24 11:41:00,
2013-02-24 03:52:00,41.0,40.0,30.47,ESE,123,3.0,5.0,96,0.00,,,0.07,,2013-02-24 11:52:00,
2013-02-24 04:01:00,41.0,40.0,30.47,SE,128,2.0,3.0,96,0.00,,,0.07,,2013-02-24 12:01:00,
2013-02-24 04:11:00,41.0,40.0,30.47,SE,128,2.0,3.0,96,0.00,,,0.07,,2013-02-24 12:11:00,
2013-02-24 04:21:00,41.0,39.0,30.47,ESE,107,2.0,4.0,93,0.00,,,0.07,,2013-02-24 12:21:00,
2013-02-24 04:32:00,41.0,38.0,30.47,SE,141,3.0,4.0,90,0.00,,,0.07,,2013-02-24 12:32:00,
2013-02-24 04:46:00,41.0,38.0,30.47,SE,141,3.0,4.0,90,0.00,,,0.07,,2013-02-24 12:46:00,
2013-02-24 04:55:00,41.0,39.0,30.47,ESE,115,4.0,6.0,93,0.00,,,0.07,,2013-02-24 12:55:00,
2013-02-24 05:06:00,41.0,39.0,30.47,SE,132,5.0,7.0,93,0.00,,,0.07,,2013-02-24 13:06:00,
2013-02-24 05:15:00,41.0,39.0,30.47,SE,132,5.0,7.0,93,0.00,,,0.07,,2013-02-24 13:15:00,
2013-02-24 05:32:00,40.0,36.0,30.46,SE,130,3.0,5.0,87,0.00,,,0.07,,2013-02-24 13:32:00,
2013-02-24 05:43:00,40.0,36.0,30.46,SE,130,3.0,5.0,87,0.00,,,0.07,,2013-02-24 13:43:00,
2013-02-24 05:51:00,40.0,38.0,30.46,ESE,113,3.0,4.0,92,0.00,,,0.07,,2013-02-24 13:51:00,
2013-02-24 06:12:00,41.0,40.0,30.46,SE,138,3.0,6.0,95,0.00,,,0.07,,2013-02-24 14:12:00,
2013-02-24 06:22:00,41.0,40.0,30.46,SE,138,3.0,6.0,95,0.00,,,0.07,,2013-02-24 14:22:00,
2013-02-24 06:32:00,41.0,40.0,30.46,SE,131,4.0,5.0,98,0.00,,,0.07,,2013-02-24 14:32:00,
2013-02-24 06:43:00,41.0,40.0,30.46,SE,131,4.0,5.0,98,0.00,,,0.07,,2013-02-24 14:43:00,
2013-02-24 07:02:00,41.0,40.0,30.46,ESE,120,2.0,4.0,96,0.00,,,0.07,,2013-02-24 15:02:00,
2013-02-24 07:12:00,41.0,40.0,30.46,ESE,120,2.0,4.0,96,0.00,,,0.07,,2013-02-24 15:12:00,
2013-02-24 07:22:00,41.0,41.0,30.45,SE,125,2.0,5.0,100,0.00,,,0.07,,2013-02-24 15:22:00,
2013-02-24 07:31:00,41.0,40.0,30.46,ESE,110,3.0,4.0,96,0.00,,,0.04,,2013-02-24 15:31:00,
2013-02-24 07:42:00,41.0,40.0,30.46,ESE,110,3.0,4.0,96,0.00,,,0.04,,2013-02-24 15:42:00,
2013-02-24 07:52:00,41.0,40.0,30.45,SE,131,3.0,5.0,98,0.00,,,0.04,,2013-02-24 15:52:00,
2013-02-24 08:01:00,41.0,41.0,30.45,SSE,155,3.0,6.0,100,0.00,,,0.04,,2013-02-24 16:01:00,
2013-02-24 08:11:00,41.0,41.0,30.45,SSE,155,3.0,6.0,100,0.00,,,0.04,,2013-02-24 16:11:00,
2013-02-24 08:21:00,41.0,41.0,30.45,SE,128,3.0,7.0,100,0.00,,,0.04,,2013-02-24 16:21:00,
2013-02-24 08:31:00,42.0,42.0,30.45,East,99,4.0,7.0,100,0.00,,,0.03,,2013-02-24 16:31:00,
2013-02-24 08:41:00,42.0,42.0,30.45,East,99,4.0,7.0,100,0.00,,,0.03,,2013-02-24 16:41:00,
2013-02-24 08:52:00,43.0,43.0,30.45,SE,128,5.0,6.0,100,0.00,,,0.03,,2013-02-24 16:52:00,
2013-02-24 09:01:00,44.0,44.0,30.45,ESE,102,4.0,8.0,100,0.00,,,0.03,,2013-02-24 17:01:00,
2013-02-24 09:11:00,44.0,44.0,30.45,ESE,102,4.0,8.0,100,0.00,,,0.03,,2013-02-24 17:11:00,
2013-02-24 09:21:00,45.0,45.0,30.45,ESE,121,4.0,7.0,100,0.00,,,0.03,,2013-02-24 17:21:00,
2013-02-24 09:31:00,46.0,46.0,30.45,ESE,123,5.0,7.0,100,0.00,,,0.03,,2013-02-24 17:31:00,
2013-02-24 09:41:00,46.0,46.0,30.45,ESE,123,5.0,7.0,100,0.00,,,0.03,,2013-02-24 17:41:00,
2013-02-24 09:52:00,46.0,46.0,30.45,East,92,5.0,6.0,100,0.00,,,0.03,,2013-02-24 17:52:00,
2013-02-24 10:01:00,47.0,47.0,30.45,ESE,120,5.0,8.0,100,0.00,,,0.03,,2013-02-24 18:01:00,
2013-02-24 10:11:00,47.0,47.0,30.45,ESE,120,5.0,8.0,100,0.00,,,0.03,,2013-02-24 18:11:00,
2013-02-24 10:21:00,47.0,47.0,30.45,ESE,118,5.0,11.0,100,0.00,,,0.03,,2013-02-24 18:21:00,
2013-02-24 10:31:00,48.0,48.0,30.44,SE,140,3.0,10.0,100,0.00,,,0.01,,2013-02-24 18:31:00,
2013-02-24 10:41:00,48.0,48.0,30.44,SE,140,3.0,10.0,100,0.00,,,0.01,,2013-02-24 18:41:00,
2013-02-24 10:51:00,49.0,49.0,30.43,SSE,155,8.0,15.0,100,0.00,,,0.01,,2013-02-24 18:51:00,
2013-02-24 11:01:00,49.0,49.0,30.42,South,178,7.0,14.0,100,0.00,,,0.01,,2013-02-24 19:01:00,
2013-02-24 11:21:00,49.0,49.0,30.42,SSW,196,8.0,14.0,100,0.00,,,0.01,,2013-02-24 19:21:00,
2013-02-24 11:32:00,49.0,49.0,30.42,SSW,205,8.0,12.0,100,0.00,,,0.01,,2013-02-24 19:32:00,
2013-02-24 11:41:00,49.0,49.0,30.42,SSW,205,8.0,12.0,100,0.00,,,0.01,,2013-02-24 19:41:00,
2013-02-24 11:51:00,49.0,49.0,30.42,SE,138,7.0,14.0,100,0.00,,,0.01,,2013-02-24 19:51:00,
2013-02-24 12:01:00,49.0,49.0,30.42,South,178,8.0,15.0,100,0.00,,,0.01,,2013-02-24 20:01:00,
2013-02-24 12:21:00,49.0,49.0,30.42,SSW,202,9.0,17.0,100,0.00,,,0.01,,2013-02-24 20:21:00,
2013-02-24 12:31:00,49.0,49.0,30.41,SSE,168,5.0,14.0,100,0.00,,,0.01,,2013-02-24 20:31:00,
2013-02-24 12:41:00,49.0,49.0,30.41,SSE,168,5.0,14.0,100,0.00,,,0.01,,2013-02-24 20:41:00,
2013-02-24 12:52:00,49.0,49.0,30.40,South,178,8.0,15.0,100,0.00,,,0.01,,2013-02-24 20:52:00,
2013-02-24 13:01:00,49.0,49.0,30.40,South,175,5.0,18.0,100,0.00,,,0.01,,2013-02-24 21:01:00,
2013-02-24 13:21:00,49.0,49.0,30.39,South,186,8.0,15.0,100,0.00,,,0.01,,2013-02-24 21:21:00,
2013-02-24 13:32:00,48.0,48.0,30.38,WSW,240,8.0,15.0,100,0.00,,,0.01,,2013-02-24 21:32:00,
2013-02-24 13:41:00,48.0,48.0,30.38,WSW,240,8.0,15.0,100,0.00,,,0.01,,2013-02-24 21:41:00,
2013-02-24 13:52:00,49.0,49.0,30.37,SSW,207,7.0,14.0,100,0.00,,,0.01,,2013-02-24 21:52:00,
2013-02-24 14:01:00,49.0,49.0,30.36,SSE,163,9.0,15.0,100,0.00,,,0.01,,2013-02-24 22:01:00,
2013-02-24 14:21:00,50.0,50.0,30.36,South,181,7.0,12.0,100,0.00,,,0.01,,2013-02-24 22:21:00,
2013-02-24 14:31:00,49.0,49.0,30.36,South,182,8.0,15.0,100,0.00,,,0.01,,2013-02-24 22:31:00,
2013-02-24 14:41:00,49.0,49.0,30.36,South,182,8.0,15.0,100,0.00,,,0.01,,2013-02-24 22:41:00,
2013-02-24 14:51:00,49.0,49.0,30.35,SSW,207,8.0,14.0,100,0.00,,,0.01,,2013-02-24 22:51:00,
2013-02-24 15:01:00,48.0,48.0,30.35,SW,223,9.0,15.0,100,0.00,,,0.01,,2013-02-24 23:01:00,
2013-02-24 15:11:00,48.0,48.0,30.35,SW,223,9.0,15.0,100,0.00,,,0.01,,2013-02-24 23:11:00,
2013-02-24 15:21:00,49.0,49.0,30.34,SW,227,9.0,15.0,100,0.00,,,0.01,,2013-02-24 23:21:00,
2013-02-24 15:31:00,49.0,49.0,30.33,SSW,194,10.0,14.0,100,0.00,,,0.01,,2013-02-24 23:31:00,
2013-02-24 15:41:00,49.0,49.0,30.33,SSW,194,10.0,14.0,100,0.00,,,0.01,,2013-02-24 23:41:00,
2013-02-24 15:52:00,49.0,49.0,30.32,SSW,198,8.0,13.0,100,0.00,,,0.01,,2013-02-24 23:52:00,
2013-02-24 16:01:00,48.0,48.0,30.32,SE,144,6.0,15.0,100,0.00,,,0.01,,2013-02-25 00:01:00,
2013-02-24 16:11:00,48.0,48.0,30.32,SE,144,6.0,15.0,100,0.00,,,0.01,,2013-02-25 00:11:00,
2013-02-24 16:31:00,48.0,48.0,30.31,SSW,194,5.0,13.0,100,0.00,,,0.01,,2013-02-25 00:31:00,
2013-02-24 16:41:00,48.0,48.0,30.31,SSW,194,5.0,13.0,100,0.00,,,0.01,,2013-02-25 00:41:00,
2013-02-24 16:51:00,48.0,48.0,30.31,SSE,148,8.0,13.0,100,0.00,,,0.01,,2013-02-25 00:51:00,
2013-02-24 17:01:00,48.0,48.0,30.30,SSE,163,5.0,12.0,100,0.00,,,0.01,,2013-02-25 01:01:00,
2013-02-24 17:31:00,47.0,47.0,30.28,South,169,6.0,15.0,100,0.00,,,0.01,,2013-02-25 01:31:00,
2013-02-24 17:42:00,47.0,47.0,30.28,South,169,6.0,15.0,100,0.00,,,0.01,,2013-02-25 01:42:00,
2013-02-24 17:51:00,47.0,47.0,30.28,SSE,156,6.0,14.0,100,0.00,,,0.01,,2013-02-25 01:51:00,
2013-02-24 18:01:00,47.0,47.0,30.27,SSE,158,7.0,12.0,100,0.00,,,0.01,,2013-02-25 02:01:00,
2013-02-24 18:11:00,47.0,47.0,30.27,SSE,158,7.0,12.0,100,0.00,,,0.01,,2013-02-25 02:11:00,
2013-02-24 18:21:00,47.0,47.0,30.27,SSE,159,6.0,11.0,100,0.00,,,0.01,,2013-02-25 02:21:00,
2013-02-24 18:31:00,46.0,46.0,30.26,South,185,5.0,10.0,100,0.00,,,0.01,,2013-02-25 02:31:00,
2013-02-24 18:41:00,46.0,46.0,30.26,South,185,5.0,10.0,100,0.00,,,0.01,,2013-02-25 02:41:00,
2013-02-24 18:52:00,46.0,46.0,30.26,SSE,157,5.0,12.0,100,0.00,,,0.01,,2013-02-25 02:52:00,
2013-02-24 19:01:00,46.0,46.0,30.24,SSE,162,6.0,10.0,100,0.00,,,0.01,,2013-02-25 03:01:00,
2013-02-24 19:11:00,46.0,46.0,30.24,SSE,162,6.0,10.0,100,0.00,,,0.01,,2013-02-25 03:11:00,
2013-02-24 19:21:00,46.0,46.0,30.25,SSE,162,4.0,10.0,100,0.00,,,0.01,,2013-02-25 03:21:00,
2013-02-24 19:31:00,46.0,46.0,30.24,SE,144,7.0,12.0,100,0.00,,,0.01,,2013-02-25 03:31:00,
2013-02-24 19:41:00,46.0,46.0,30.24,SE,144,7.0,12.0,100,0.00,,,0.01,,2013-02-25 03:41:00,
2013-02-24 19:51:00,46.0,46.0,30.24,SE,140,9.0,13.0,100,0.00,,,0.01,,2013-02-25 03:51:00,
2013-02-24 20:01:00,46.0,46.0,30.22,SE,144,8.0,11.0,100,0.00,,,0.01,,2013-02-25 04:01:00,
2013-02-24 20:11:00,46.0,46.0,30.22,SE,144,8.0,11.0,100,0.00,,,0.01,,2013-02-25 04:11:00,
2013-02-24 20:21:00,46.0,46.0,30.22,SSE,156,5.0,10.0,100,0.00,,,0.01,,2013-02-25 04:21:00,
2013-02-24 20:31:00,46.0,46.0,30.21,ESE,121,8.0,15.0,100,0.00,,,0.01,,2013-02-25 04:31:00,
2013-02-24 20:41:00,46.0,46.0,30.21,ESE,121,8.0,15.0,100,0.00,,,0.01,,2013-02-25 04:41:00,
2013-02-24 20:51:00,46.0,46.0,30.21,SSE,155,8.0,13.0,100,0.00,,,0.01,,2013-02-25 04:51:00,
2013-02-24 21:01:00,46.0,46.0,30.21,SE,124,7.0,13.0,100,0.00,,,0.01,,2013-02-25 05:01:00,
2013-02-24 21:11:00,46.0,46.0,30.21,SE,124,7.0,13.0,100,0.00,,,0.01,,2013-02-25 05:11:00,
2013-02-24 21:22:00,46.0,46.0,30.20,SSE,167,8.0,15.0,100,0.00,,,0.01,,2013-02-25 05:22:00,
2013-02-24 21:31:00,46.0,46.0,30.20,South,173,9.0,13.0,100,0.00,,,0.01,,2013-02-25 05:31:00,
2013-02-24 21:41:00,46.0,46.0,30.20,South,173,9.0,13.0,100,0.00,,,0.01,,2013-02-25 05:41:00,
2013-02-24 21:52:00,47.0,47.0,30.20,SSE,158,13.0,19.0,100,0.00,,,0.01,,2013-02-25 05:52:00,
2013-02-24 22:02:00,47.0,47.0,30.19,SSE,153,14.0,22.0,100,0.00,,,0.01,,2013-02-25 06:02:00,
2013-02-24 22:11:00,47.0,47.0,30.19,SSE,153,14.0,22.0,100,0.00,,,0.01,,2013-02-25 06:11:00,
2013-02-24 22:21:00,46.0,46.0,30.18,SSE,150,10.0,21.0,100,0.00,,,0.01,,2013-02-25 06:21:00,
2013-02-24 22:31:00,46.0,46.0,30.17,SSE,168,13.0,26.0,100,0.00,,,0.01,,2013-02-25 06:31:00,
2013-02-24 22:41:00,46.0,46.0,30.17,SSE,168,13.0,26.0,100,0.00,,,0.01,,2013-02-25 06:41:00,
2013-02-24 22:51:00,46.0,46.0,30.16,SE,143,15.0,22.0,100,0.00,,,0.01,,2013-02-25 06:51:00,
2013-02-24 23:01:00,46.0,46.0,30.16,SE,145,15.0,26.0,100,0.00,,,0.01,,2013-02-25 07:01:00,
2013-02-24 23:11:00,47.0,47.0,30.15,South,171,16.0,32.0,100,0.00,,,0.01,,2013-02-25 07:11:00,
2013-02-24 23:21:00,47.0,47.0,30.15,South,171,16.0,32.0,100,0.00,,,0.01,,2013-02-25 07:21:00,
2013-02-24 23:31:00,46.0,46.0,30.14,SSE,166,14.0,29.0,100,0.01,,,0.01,,2013-02-25 07:31:00,
2013-02-24 23:41:00,46.0,46.0,30.14,SSE,166,14.0,29.0,100,0.01,,,0.01,,2013-02-25 07:41:00,
2013-02-24 23:51:00,46.0,46.0,30.14,SSE,159,19.0,28.0,100,0.01,,,0.01,,2013-02-25 07:51:00,